Home   Weather   Gerasdorf bei Wien   Past weeks

Flag for Austria Past Weather in Gerasdorf bei Wien, Lower Austria, Austria — Yesterday and Last 2 Weeks

Now
40 °F

Chilly.


Feels Like: 40 °F
Forecast: 43 / 61 °F
Wind: 1 mph from South

Location: Wien / Hohe Warte

Current Time: Apr 30, 2017 at 5:22:51 am

Latest Report: Apr 30, 2017 at 4:00 am


Visibility: N/A

Pressure: 30.10 "Hg

Humidity: 88%

Dew Point: 36 °F

Location of Gerasdorf bei WienLocation

Past Weather in Gerasdorf bei Wien — Graph

°F

Gerasdorf bei Wien Temperature Yesterday

Maximum temperature yesterday: 56 °F (at 2:00 pm)
Minimum temperature yesterday: 39 °F (at 6:00 am)
Average temperature yesterday: 48 °F

High & Low Weather Summary for the Past Weeks

 TemperatureHumidityPressure
High70 °F (Apr 25, 3:00 pm)97% (Apr 17, 11:00 pm)30.50 "Hg (Apr 17, 11:00 pm)
Low34 °F (Apr 19, 8:00 am)35% (Apr 16, 12:00 pm)29.65 "Hg (Apr 25, 7:00 pm)
Average47 °F69%30.03 "Hg
* Reported Apr 15 4:00 am — Apr 30 4:00 am, Gerasdorf bei Wien, Weather by CustomWeather, © 2017

Note: Actual official high and low records may vary slightly from our data, if they occured in-between our weather recording intervals... More about our weather records

Advertising

Gerasdorf bei Wien Weather History for the Previous 24 Hours

Scroll right to see more
 ConditionsComfort  
Time TempWeatherWind HumidityBarometerVisibility
4:00 am
Sun, Apr 30
40 °FChilly.1 mph88%30.10 "HgN/A
3:00 am41 °FQuite cool.1 mph83%30.10 "HgN/A
2:00 am43 °FPassing clouds.2 mph77%30.09 "Hg22 mi
1:00 am44 °FQuite cool.3 mph75%30.09 "HgN/A
12:00 am44 °FQuite cool.No wind76%30.09 "HgN/A
11:00 pm
Sat, Apr 29
44 °FPassing clouds.3 mph79%30.09 "Hg22 mi
10:00 pm47 °FOvercast.3 mph68%30.08 "Hg22 mi
9:00 pm48 °FOvercast.2 mph69%30.08 "Hg22 mi
8:00 pm51 °FPartly sunny.5 mph59%30.06 "Hg25 mi
7:00 pm53 °FScattered clouds.2 mph53%30.04 "Hg19 mi
6:00 pm55 °FOvercast.2 mph50%30.05 "Hg19 mi
5:00 pm55 °FOvercast.3 mph50%30.04 "Hg16 mi
4:00 pm55 °FOvercast.3 mph48%30.03 "Hg16 mi
3:00 pm55 °FPartly sunny.5 mph45%30.03 "Hg16 mi
2:00 pm56 °FPartly sunny.5 mph50%30.04 "Hg12 mi
1:00 pm55 °FPartly sunny.5 mph52%30.05 "Hg11 mi
12:00 pm54 °FScattered clouds.5 mph55%30.07 "Hg11 mi
11:00 am52 °FPassing clouds.5 mph59%30.08 "Hg11 mi
10:00 am50 °FPassing clouds.5 mph64%30.08 "Hg11 mi
9:00 am47 °FPassing clouds.6 mph70%30.08 "Hg11 mi
8:00 am44 °FPassing clouds.8 mph76%30.07 "Hg9 mi
7:00 am41 °FPassing clouds.7 mph82%30.07 "Hg12 mi
6:00 am39 °FChilly.6 mph85%30.06 "HgN/A
5:00 am40 °FChilly.5 mph85%30.04 "HgN/A
Weather by CustomWeather, © 2017

See weather overviewHow to use our weather pages